Flag for U.S.A. Weather past 2 weeks in St. Petersburg, Florida, U.S.A.

Now
62 °F

Overcast.


Feels Like: 62 °F
Forecast: 53 / 65 °F
Wind: 16 mph from East

Location: Whitted Airport

Current Time: Feb 27, 2015 at 4:20:53 PM

Latest Report: Feb 27, 2015 at 3:53 PM


Visibility: 10 mi

Pressure: 30.16 "Hg

Humidity: 73%

Dew point: 53 °F

Location of St. PetersburgLocation

Historic Weather in St. Petersburg — Graph

°F

St. Petersburg temperature yesterday

Maximum temperature yesterday: 70 °F (at 12:53 AM)
Minimum temperature yesterday: 56 °F (at 9:53 PM)
Average temperature yesterday: 63 °F

Past Weeks' High & Low Weather Summary

 TemperatureHumidityPressure
High77 °F (Feb 22, 12:53 PM)100% (Feb 23, 6:53 AM)30.42 "Hg (Feb 23, 6:53 AM)
Low40 °F (Feb 20, 6:53 AM)28% (Feb 20, 2:53 PM)29.69 "Hg (Feb 26, 2:53 AM)
Average60 °F72%30.11 "Hg
* Reported Feb 12 2:53 PM — Feb 27 2:53 PM, St. Petersburg, Weather by CustomWeather, © 2015

Note: Actual official high and low records may vary slightly from our data, if they occured in-between our weather recording intervals... More about our weather records

Advertising

St. Petersburg weather history for previous 24 hours

 ConditionsComfort  
Time TempWeatherWind HumidityBarometerVisibility
2:53 PM
Fri, Feb 27
62 °FOvercast.13 mph67%30.16 "Hg10 mi
1:53 PM61 °FScattered clouds.12 mph70%30.17 "Hg10 mi
12:53 PM60 °FOvercast.13 mph67%30.20 "Hg10 mi
11:53 AM58 °FMostly cloudy.14 mph70%30.21 "Hg10 mi
10:53 AM57 °FOvercast.13 mph74%30.21 "Hg10 mi
9:53 AM56 °FOvercast.13 mph75%30.21 "Hg10 mi
8:53 AM56 °FOvercast.15 mph77%30.19 "Hg10 mi
7:53 AM56 °FOvercast.13 mph77%30.16 "Hg10 mi
6:53 AM57 °FOvercast.14 mph81%30.12 "Hg10 mi
5:53 AM58 °FOvercast.10 mph78%30.10 "Hg10 mi
4:53 AM57 °FOvercast.13 mph81%30.07 "Hg10 mi
3:53 AM57 °FOvercast.13 mph81%30.05 "Hg10 mi
2:53 AM57 °FOvercast.9 mph81%30.04 "Hg10 mi
1:53 AM57 °FOvercast.10 mph81%30.04 "Hg10 mi
12:53 AM56 °FOvercast.8 mph81%30.05 "Hg10 mi
11:53 PM
Thu, Feb 26
56 °FOvercast.10 mph81%30.06 "Hg10 mi
10:53 PM56 °FPassing clouds.9 mph77%30.06 "Hg10 mi
9:53 PM56 °FPassing clouds.9 mph77%30.05 "Hg10 mi
9:00 PM57 °FMostly cloudy.13 mph78%30.03 "Hg10 mi
7:53 PM58 °FMostly cloudy.13 mph78%29.99 "Hg10 mi
6:53 PM58 °FMostly cloudy.10 mph78%29.97 "Hg10 mi
5:53 PM59 °FMostly cloudy.9 mph78%29.94 "Hg10 mi
4:53 PM60 °FOvercast.9 mph75%29.92 "Hg10 mi
Weather by CustomWeather, © 2015

See weather overviewHow to use our weather pages